METEOR 2-17 DEB, 35369

Orbit data source: Space-Track

METEOR 2-17 DEB, 35369 is space debris in LEO originally from a launch on Sat, 30 Jan 1988 UTC launched from the Plesetsk Missile And Space Complex (PKMTR). Debris objects in space refer to the collection of defunct objects orbiting the Earth. Examples of debris include non-operational satellites, rocket bodies, and fragments generated from explosions, collisions, or faulty payload assembly.

Loading next visibility...
Identifier
35369, 1988-005AD
Orbit
LEO
Country
Flag of CISCIS
Related business
Manufacturer
Unknown
Mission
Spacecraft
Bus & Motor
Unknown
Mass
Unknown
Launch date (UTC)
1988-01-30 (38 years ago)
Launch vehicle
Unknown
Launch site
Plesetsk Missile And Space Complex (PKMTR)
Object type
Payload
Rocket body
Debris
Shape & HBR
Unknown
Radar Cross Section
Small (<0.1 m²)

Expand to show TLE details & history
Last TLE update: 3 days ago

TLE from 3 days ago
0 METEOR 2-17 DEB
1 35369U 88005AD  25258.96642685  .00000701  00000-0  48166-3 0  9991
2 35369  82.5241 134.9062 0014528  32.7174  28.6480 13.98168060707564
Epoch: 2025-09-15T23:11Z
TLE epoch observation values (Epoch: 2025-09-15T23:11:39.279Z)
Latitude
60.65679°
Longitude
165.25579°
Altitude
901.208 km
Speed
7.412 km/s
True Right ascension
09h 53m 19s
True Declination
60° 30' 45"
Sunlit
Object was in daylight at epoch
Visualization orbit readout
Latitude
Unknown
Longitude
Unknown
Altitude
Unknown
Speed
Unknown
Apparent Right ascension
Unknown
Apparent Declination
Unknown
Sunlit
N/A
Visualization observer readout
Local Sidereal Time
14:42:14
Azimuth
Unknown
Elevation
Unknown
Doppler factor
Unknown
Orbital elements
Apogee altitude
907.849 km
Perigee altitude
886.709 km
Semi-major axis
7,275.416 km
Eccentricity
0.00145
Inclination
82.5241°
RAAN
134.9062°
Arg. of periapsis
32.7174°
True anomaly
28.72794°
Mean anomaly
28.648°
Eccentric anomaly
28.68796°
Mean motion
3.49749 °/min
Orbital period
102.93 mins
BSTAR
0.00048166
Loading maneuver chart data...
Computing Atmospheric mass density...
Loading historical data...
Loading historical data...
Loading historical data...
Loading historical data...
Loading historical data...
Loading historical data...
Loading historical data...

Documentation

Showing up to 5 results
|